Wind_Speed
1 2 2 3 6 1 5 1 5 5 5 7 10 9 10 6 8 6 7 8 10 9 12 11 12 11 10 11 12 12 10 9 9 9 9 9 11 10 9 9 9 5 1 4 5 6 5 4 4
3 4 5 6 2 8 5 2 2 8 12 3 10 9 12 10 12 11 13 17 14 11 12 15 12 14 13 13 13 14 12 11 11 11 11 10 11 13 11 11 9 7 3 2 4 7 6 5 5
4 5 3 2 3 4 4 3 9 6 12 11 15 14 9 12 15 17 19 18 18 15 12 16 16 16 18 13 17 16 15 13 13 12 13 12 12 14 12 12 10 8 4 1 3 5 7 6 5
4 7 9 5 3 6 7 11 7 2 6 15 13 12 11 16 18 20 22 20 21 19 18 20 20 19 19 24 24 22 18 16 14 13 13 14 13 16 16 13 11 10 7 4 4 1 2 5 4
5 9 4 1 6 7 8 8 5 3 11 16 10 14 16 18 19 21 23 25 24 22 22 19 22 23 23 27 22 25 21 19 16 15 14 14 15 16 18 16 14 12 9 7 8 4 1 1 2
7 7 0 2 3 12 10 8 4 6 9 17 13 15 20 24 21 23 26 27 26 26 24 27 24 25 24 29 27 25 18 21 18 16 15 16 16 16 19 18 17 14 11 9 11 7 3 1 1
4 4 4 3 4 7 11 14 11 10 9 17 15 16 24 26 22 24 26 27 28 29 29 25 28 25 26 29 27 29 24 22 17 18 16 16 17 17 18 19 19 15 14 13 11 6 5 4 2
3 2 3 4 2 6 17 14 9 11 16 16 14 14 20 24 24 25 28 30 29 30 32 32 30 28 27 26 28 26 23 30 23 17 18 18 19 18 18 17 16 15 15 17 11 13 10 7 2
4 5 5 6 1 6 12 8 19 14 14 17 15 15 18 20 21 23 24 26 26 26 30 35 36 34 28 34 33 25 21 17 20 19 19 18 19 21 19 20 19 16 15 14 15 12 7 3 1
4 4 9 6 4 5 10 11 12 15 13 18 24 27 23 21 20 19 21 23 23 23 24 28 32 35 34 32 33 25 27 19 14 21 20 20 22 21 22 20 20 19 18 23 14 14 11 6 6
5 4 4 0 5 8 11 15 16 16 13 19 20 22 22 22 22 22 19 21 21 22 23 25 27 31 32 33 35 30 26 27 24 30 29 23 24 25 25 24 22 22 20 23 16 17 9 5 7
3 3 1 6 9 12 13 15 16 17 18 19 21 21 20 21 22 21 20 19 19 20 22 24 26 28 30 31 29 30 28 28 27 29 33 30 31 29 23 27 25 24 22 26 15 14 13 6 8
5 5 4 9 11 12 16 15 16 18 20 19 19 20 20 19 20 21 22 21 19 18 19 20 22 26 29 31 28 27 26 28 27 29 26 28 20 30 27 26 26 27 26 26 19 18 11 13 15
5 6 6 10 13 14 17 14 18 19 21 20 20 19 20 20 20 21 21 21 20 20 17 17 18 21 22 27 25 27 28 28 29 28 31 29 29 22 31 29 26 24 26 27 22 17 13 16 14
5 9 6 11 13 13 16 14 14 17 21 20 19 22 21 22 22 23 22 22 20 19 19 17 16 17 18 20 27 27 29 26 30 31 34 34 32 34 26 27 25 24 25 25 24 22 22 12 17
8 6 10 12 10 11 13 9 14 14 19 19 20 22 24 23 24 22 22 21 20 18 18 18 16 14 13 17 18 19 23 24 27 29 33 35 28 30 21 28 25 26 26 23 28 23 24 22 20
9 7 10 12 9 8 10 7 14 13 17 18 19 19 23 23 25 25 24 21 22 21 18 17 16 15 13 14 11 14 16 18 21 18 24 30 28 26 22 30 24 24 26 23 23 26 23 20 21
6 11 12 11 12 10 9 8 11 13 17 18 18 19 21 23 25 25 25 25 23 21 19 16 15 14 15 13 12 14 12 14 20 19 19 24 29 28 27 34 28 27 27 27 22 22 23 22 19
6 12 14 13 18 11 10 5 9 10 14 16 19 20 20 22 25 25 24 25 25 24 21 17 15 14 12 15 15 14 14 15 23 25 15 21 29 26 26 34 31 31 28 26 24 24 21 21 21
6 13 14 15 15 13 13 5 7 11 14 14 16 18 19 20 23 27 28 28 26 25 24 19 17 15 14 15 17 16 15 17 19 22 15 30 33 36 30 29 28 28 28 28 25 19 16 16 17
8 10 15 20 18 11 16 5 7 12 16 13 15 18 20 22 22 23 25 27 27 26 23 21 18 17 17 17 17 17 17 13 19 23 17 20 27 29 27 29 28 28 25 24 22 18 14 14 14
11 7 15 20 16 5 9 7 9 12 20 16 15 17 19 21 22 23 25 27 26 27 24 22 21 19 18 18 14 14 14 12 15 20 15 17 25 34 35 31 29 27 26 24 23 20 15 14 13
11 13 11 18 11 12 4 6 5 10 11 16 16 15 18 20 20 21 25 26 27 26 25 22 21 16 11 12 13 12 12 13 17 18 15 14 25 29 36 27 28 25 24 24 21 21 20 20 18
11 13 11 8 5 3 5 5 4 7 13 12 13 14 16 20 21 22 23 26 27 27 25 22 20 16 8 7 6 7 6 8 15 14 17 19 19 25 41 36 29 30 24 25 24 20 20 18 16
6 10 4 4 3 4 7 9 5 11 12 9 10 12 15 19 22 25 26 27 29 28 26 23 19 17 10 1 6 5 4 6 9 14 12 13 17 24 36 32 29 28 32 24 20 23 25 21 19
8 3 1 4 2 5 18 7 5 10 10 8 8 10 13 16 21 25 26 27 27 26 24 21 18 16 12 7 6 2 5 8 8 6 5 9 9 30 38 37 32 25 28 27 29 18 25 19 18
2 1 2 4 4 4 5 7 11 8 9 8 8 10 12 16 20 24 26 28 27 25 24 22 17 15 12 5 10 3 4 6 8 7 9 7 12 10 34 38 26 29 29 29 23 25 20 23 25
7 4 1 1 2 4 7 10 9 11 11 8 9 10 13 15 18 22 25 27 27 25 23 21 17 15 13 7 4 6 2 7 10 14 12 8 10 14 16 32 22 32 28 25 25 27 27 26 26
6 6 4 3 3 4 2 5 7 10 13 12 10 10 12 14 17 20 23 27 27 26 23 21 17 15 14 11 6 1 4 7 11 13 14 13 10 9 12 19 10 12 21 21 34 30 25 25 20
12 11 8 5 4 5 4 13 9 9 15 13 12 11 11 11 14 17 20 25 26 26 23 20 20 18 15 13 10 6 2 1 5 8 10 11 11 10 14 17 17 16 13 17 21 15 6 7 4
Wind_Direction
166 136 116 121 81 105 230 331 245 278 225 283 287 278 265 265 254 242 260 275 266 253 249 235 233 233 232 240 241 244 247 243 245 237 227 212 189 201 209 199 182 183 131 69 73 74 80 101 107
102 131 131 109 86 249 104 145 282 274 280 284 278 283 274 285 273 274 270 276 276 263 248 232 233 248 259 247 247 241 240 238 240 236 232 224 206 203 209 201 201 200 165 100 82 88 85 83 101
102 123 107 41 344 25 26 263 251 320 304 273 283 288 280 280 281 279 270 267 270 259 247 236 237 238 242 221 253 249 243 233 229 229 227 226 216 207 208 208 208 215 217 186 123 79 69 82 96
76 100 88 73 108 261 201 261 303 336 321 292 277 279 278 274 278 285 285 288 293 269 252 243 246 240 238 245 240 235 235 236 227 228 226 220 219 214 211 218 215 221 229 221 206 85 37 61 78
73 83 117 153 261 257 275 273 295 272 274 281 287 283 283 282 283 280 280 282 280 281 270 260 244 247 245 247 252 220 218 227 223 217 219 220 215 214 219 219 228 229 234 224 215 228 232 51 49
56 80 52 5 254 283 297 321 284 271 294 287 290 296 289 277 278 279 279 281 283 281 278 269 261 245 251 248 249 253 214 232 216 215 217 216 215 210 215 225 230 236 237 218 224 212 203 227 3
112 105 244 235 256 310 268 315 295 295 278 298 297 289 282 288 288 284 282 278 274 276 276 272 267 269 263 253 262 267 262 227 219 215 213 215 213 212 215 221 232 230 219 222 216 237 211 235 262
6 88 43 290 224 255 287 312 322 316 291 302 302 286 287 301 295 289 287 285 279 271 270 270 268 265 267 272 265 264 260 223 229 225 222 214 211 210 214 216 220 218 231 201 206 233 246 266 239
355 82 248 261 181 264 311 327 314 337 315 318 313 306 298 292 291 293 290 286 284 278 269 267 267 267 255 264 273 264 248 245 264 220 223 218 220 212 210 213 217 218 227 221 230 238 214 156 329
333 185 245 275 282 303 326 338 332 332 327 316 332 325 321 316 312 301 290 287 286 283 278 269 268 264 262 256 256 257 259 259 235 224 234 224 219 222 215 213 221 219 225 211 207 217 222 288 277
342 286 265 320 34 9 356 345 345 341 345 331 321 319 323 323 318 315 307 299 292 286 282 275 270 268 264 257 254 252 251 249 247 236 248 232 214 221 218 218 215 218 228 204 244 227 223 249 276
13 333 328 60 44 19 4 354 344 355 347 339 331 328 325 324 321 319 317 312 302 293 286 281 272 270 266 260 252 253 248 244 241 244 251 238 218 213 215 218 224 220 219 225 213 231 232 234 253
7 354 15 56 42 22 7 359 1 358 353 341 333 330 331 327 325 322 322 324 320 308 301 293 281 271 265 254 245 243 243 243 238 237 247 257 239 218 214 218 222 225 227 223 231 219 244 263 244
357 352 13 43 35 22 7 5 4 1 350 338 336 335 332 332 327 323 325 323 323 322 313 303 301 290 276 252 244 240 237 236 238 241 247 259 248 227 218 217 219 225 228 230 225 228 242 212 232
329 353 333 22 18 15 7 0 3 358 348 344 344 346 339 333 332 329 328 325 322 321 318 301 298 302 280 261 239 246 246 241 246 246 248 249 230 256 210 216 213 221 226 214 233 227 218 240 250
5 329 8 333 354 9 4 350 359 349 349 356 356 348 341 340 339 335 330 325 323 320 318 311 298 292 291 280 260 256 250 239 242 245 242 242 218 223 240 216 211 216 227 223 222 237 233 247 258
0 333 312 313 324 341 357 346 338 347 350 354 355 346 339 339 340 342 337 330 320 316 313 307 303 295 284 273 254 275 250 243 246 238 246 226 214 211 236 216 208 214 221 219 219 219 242 242 252
314 329 296 313 311 322 325 351 343 325 344 349 350 350 341 339 335 340 334 330 326 320 315 309 297 291 278 265 258 268 263 252 225 215 210 204 206 210 231 205 202 209 209 217 219 225 235 244 235
342 318 324 326 306 313 326 321 346 340 334 348 353 350 345 342 342 343 344 341 336 326 318 310 299 287 280 270 259 260 268 252 218 210 220 209 203 203 212 203 199 206 209 217 224 231 243 249 249
347 330 324 326 323 306 316 257 6 341 336 344 349 350 353 351 348 346 349 349 343 334 327 315 296 283 275 266 259 260 260 246 227 191 151 194 186 197 205 201 198 208 209 217 223 230 244 248 259
321 336 332 329 325 299 326 282 299 350 338 338 348 351 357 356 355 350 348 351 349 345 337 326 301 272 260 254 253 252 255 249 230 232 216 169 192 206 193 196 200 207 211 216 223 233 241 252 257
305 321 328 330 326 304 321 299 291 314 334 344 347 353 358 357 356 355 353 356 352 350 345 336 324 301 271 268 268 255 243 257 250 231 227 212 196 200 210 197 200 204 212 214 224 232 234 245 256
308 314 327 321 309 307 295 279 262 300 323 308 335 351 358 359 358 353 353 355 357 352 350 342 341 333 305 274 260 249 249 278 258 204 219 228 219 217 200 191 207 199 211 209 212 221 233 240 250
309 313 333 332 313 318 249 273 267 294 326 319 334 352 1 0 357 354 352 354 359 358 355 353 351 349 342 273 241 221 215 252 217 198 216 224 225 219 213 199 205 206 211 228 220 218 228 238 243
311 332 320 351 13 230 304 285 275 305 343 351 339 350 360 2 359 356 352 356 359 2 360 360 2 358 8 323 139 125 176 171 210 200 219 224 211 206 198 202 208 214 214 232 242 223 224 227 248
312 344 59 225 286 280 294 247 306 318 334 0 351 353 359 1 2 359 356 359 1 3 5 4 6 7 17 57 92 116 135 145 211 188 204 208 201 208 209 199 210 222 221 227 233 237 239 252 239
302 302 276 268 292 314 264 292 295 316 335 2 2 358 1 4 3 1 359 2 5 7 8 9 10 14 20 102 84 72 237 224 201 214 205 196 200 212 210 202 213 222 223 228 240 251 258 255 259
255 269 280 281 29 315 300 294 277 335 340 357 2 357 4 4 2 4 2 5 9 13 15 12 19 17 22 32 187 160 246 217 201 199 198 165 153 185 212 208 213 221 226 229 235 245 256 259 265
259 242 221 234 224 172 296 301 295 321 339 345 355 349 355 2 2 5 5 9 12 15 18 18 26 27 23 24 34 263 248 228 212 208 204 209 207 178 187 178 190 196 212 234 237 240 246 250 257
262 256 237 212 213 215 243 280 289 318 334 333 338 342 340 358 5 6 9 13 17 16 22 28 23 29 31 29 43 40 38 209 222 202 193 204 202 184 187 187 195 180 196 185 176 180 180 204 269
Height
3138 3139 3139 3141 3146 3145 3145 3146 3146 3146 3145 3144 3142 3143 3143 3144 3145 3148 3143 3142 3142 3142 3142 3143 3144 3145 3145 3147 3147 3147 3148 3148 3148 3150 3152 3152 3153 3154 3155 3156 3157 3158 3158 3158 3158 3159 3159 3160 3160
3138 3138 3140 3140 3144 3143 3145 3145 3145 3143 3142 3142 3142 3141 3142 3143 3142 3143 3143 3141 3140 3140 3140 3141 3142 3142 3143 3143 3144 3144 3145 3146 3147 3148 3149 3151 3152 3153 3154 3156 3156 3157 3158 3158 3159 3159 3160 3160 3160
3138 3139 3140 3142 3144 3142 3145 3143 3142 3143 3140 3140 3140 3141 3141 3142 3142 3141 3140 3139 3139 3138 3137 3138 3139 3139 3141 3133 3141 3141 3142 3143 3144 3145 3147 3149 3151 3152 3154 3154 3156 3156 3158 3159 3160 3160 3160 3160 3160
3139 3140 3143 3143 3144 3143 3143 3140 3142 3143 3140 3138 3138 3139 3140 3138 3139 3138 3137 3137 3137 3136 3135 3135 3135 3135 3136 3137 3136 3136 3138 3139 3141 3143 3144 3146 3149 3151 3152 3153 3155 3155 3157 3158 3160 3160 3160 3160 3160
3140 3139 3141 3143 3142 3142 3140 3140 3140 3141 3139 3135 3136 3135 3137 3136 3136 3135 3134 3133 3134 3133 3132 3132 3131 3131 3132 3133 3126 3124 3131 3134 3137 3139 3142 3144 3146 3148 3151 3152 3153 3154 3156 3157 3158 3159 3159 3160 3160
3138 3140 3141 3143 3141 3139 3138 3138 3138 3138 3137 3134 3135 3134 3132 3132 3134 3132 3130 3129 3129 3129 3128 3128 3127 3127 3128 3128 3127 3127 3123 3130 3133 3135 3138 3140 3143 3145 3148 3151 3151 3153 3155 3156 3157 3158 3159 3159 3160
3138 3139 3140 3140 3141 3140 3137 3137 3135 3136 3135 3133 3134 3133 3127 3128 3128 3127 3125 3123 3124 3123 3123 3123 3122 3123 3122 3123 3123 3124 3121 3125 3130 3132 3134 3137 3139 3142 3144 3147 3150 3151 3153 3154 3155 3157 3158 3159 3159
3138 3139 3139 3139 3140 3140 3136 3135 3134 3133 3131 3131 3132 3128 3127 3125 3124 3122 3120 3117 3117 3117 3116 3116 3116 3117 3117 3118 3120 3123 3117 3121 3125 3129 3132 3134 3136 3139 3142 3145 3147 3149 3150 3150 3154 3156 3158 3159 3159
3138 3140 3140 3138 3137 3137 3134 3134 3129 3132 3130 3128 3127 3127 3125 3123 3120 3118 3115 3113 3111 3109 3109 3109 3109 3110 3113 3113 3114 3118 3119 3115 3119 3125 3128 3130 3134 3136 3139 3142 3144 3146 3148 3148 3151 3155 3156 3157 3158
3137 3138 3137 3136 3135 3134 3132 3131 3131 3130 3127 3125 3121 3118 3118 3116 3115 3113 3110 3108 3106 3104 3103 3102 3102 3104 3106 3107 3108 3112 3115 3116 3118 3122 3125 3126 3130 3133 3136 3139 3142 3144 3145 3146 3148 3152 3154 3155 3157
3136 3136 3135 3134 3133 3132 3130 3128 3128 3127 3125 3123 3122 3118 3115 3112 3109 3107 3106 3103 3101 3099 3097 3096 3096 3096 3097 3099 3103 3106 3109 3112 3115 3118 3119 3123 3125 3128 3131 3135 3137 3140 3143 3143 3146 3150 3152 3154 3155
3136 3135 3135 3132 3130 3130 3128 3127 3126 3125 3125 3121 3118 3116 3113 3109 3106 3103 3101 3099 3096 3094 3092 3091 3090 3090 3090 3092 3096 3098 3102 3105 3110 3111 3115 3116 3116 3123 3127 3131 3134 3137 3140 3142 3141 3147 3150 3151 3154
3135 3135 3134 3130 3128 3128 3127 3126 3125 3124 3121 3119 3116 3113 3111 3107 3104 3100 3097 3095 3092 3089 3087 3085 3084 3083 3084 3085 3089 3091 3095 3098 3101 3105 3107 3109 3111 3116 3122 3125 3130 3133 3137 3140 3142 3145 3145 3149 3151
3135 3135 3134 3129 3127 3126 3125 3124 3122 3121 3119 3116 3113 3110 3108 3104 3101 3098 3095 3091 3088 3085 3083 3082 3079 3078 3078 3079 3082 3085 3088 3091 3094 3098 3100 3101 3106 3109 3115 3121 3125 3128 3133 3137 3140 3141 3144 3146 3148
3135 3135 3133 3128 3126 3125 3123 3123 3121 3118 3117 3113 3110 3107 3104 3101 3098 3095 3092 3088 3085 3083 3080 3078 3076 3074 3075 3075 3076 3078 3082 3085 3087 3091 3094 3094 3099 3107 3109 3115 3119 3124 3129 3134 3136 3139 3142 3144 3147
3134 3134 3131 3129 3127 3125 3123 3121 3119 3118 3115 3111 3107 3105 3101 3098 3095 3092 3089 3086 3083 3079 3076 3075 3073 3072 3070 3071 3072 3074 3074 3077 3079 3080 3085 3088 3093 3100 3104 3108 3116 3121 3126 3129 3133 3135 3139 3143 3144
3133 3134 3132 3129 3127 3124 3123 3120 3117 3116 3113 3110 3106 3104 3100 3096 3091 3087 3084 3082 3079 3075 3072 3070 3069 3068 3067 3067 3068 3069 3068 3070 3072 3075 3076 3080 3088 3095 3099 3104 3113 3118 3122 3126 3129 3134 3137 3140 3142
3134 3133 3132 3130 3127 3123 3121 3118 3116 3113 3111 3109 3105 3102 3099 3094 3089 3086 3082 3078 3075 3071 3068 3065 3064 3064 3063 3062 3064 3065 3064 3066 3068 3072 3074 3078 3084 3090 3095 3099 3108 3114 3118 3122 3126 3131 3134 3136 3139
3132 3131 3130 3129 3124 3122 3119 3116 3114 3112 3110 3107 3103 3100 3097 3093 3088 3085 3081 3076 3071 3067 3064 3061 3059 3058 3059 3059 3060 3060 3061 3063 3065 3068 3071 3075 3081 3085 3091 3096 3103 3109 3115 3120 3124 3128 3131 3134 3136
3130 3129 3129 3127 3125 3122 3117 3113 3110 3109 3107 3105 3102 3099 3095 3091 3087 3081 3077 3074 3069 3064 3060 3057 3054 3053 3053 3054 3055 3056 3057 3058 3062 3065 3064 3069 3071 3079 3086 3092 3100 3107 3112 3117 3121 3125 3128 3130 3133
3129 3128 3128 3127 3123 3121 3116 3109 3108 3107 3104 3103 3101 3098 3094 3090 3086 3082 3077 3072 3068 3062 3058 3053 3049 3046 3047 3048 3050 3052 3053 3055 3058 3059 3062 3062 3069 3078 3084 3090 3098 3105 3110 3115 3118 3123 3125 3128 3130
3129 3127 3126 3124 3123 3122 3118 3113 3106 3103 3101 3100 3099 3096 3093 3090 3085 3081 3076 3072 3066 3061 3056 3051 3046 3042 3042 3044 3047 3050 3051 3054 3057 3059 3060 3064 3068 3074 3081 3089 3095 3101 3107 3112 3116 3120 3122 3124 3127
3129 3127 3123 3122 3121 3121 3119 3118 3106 3104 3101 3098 3098 3096 3093 3089 3085 3080 3074 3070 3066 3060 3054 3050 3045 3041 3039 3041 3045 3046 3050 3052 3053 3058 3059 3064 3067 3072 3078 3085 3091 3098 3104 3108 3113 3116 3119 3121 3125
3128 3127 3121 3120 3120 3121 3119 3119 3107 3104 3103 3099 3096 3094 3092 3089 3084 3080 3075 3069 3066 3059 3053 3049 3045 3040 3037 3038 3041 3044 3046 3049 3053 3056 3060 3063 3065 3068 3074 3081 3087 3094 3098 3105 3110 3114 3117 3119 3122
3127 3125 3123 3124 3123 3123 3118 3117 3106 3103 3100 3098 3096 3094 3091 3088 3084 3079 3073 3068 3063 3059 3052 3049 3045 3041 3037 3038 3039 3042 3045 3047 3052 3055 3057 3059 3061 3065 3071 3078 3084 3089 3095 3098 3104 3108 3112 3115 3118
3126 3126 3126 3133 3129 3120 3116 3111 3106 3104 3100 3097 3095 3094 3091 3089 3084 3080 3074 3069 3064 3059 3053 3049 3046 3043 3039 3038 3039 3040 3044 3049 3051 3053 3055 3056 3058 3063 3069 3075 3082 3086 3092 3098 3102 3104 3107 3110 3114
3125 3126 3127 3125 3124 3122 3112 3108 3106 3103 3100 3096 3094 3093 3091 3088 3085 3081 3075 3070 3065 3059 3053 3050 3047 3045 3042 3040 3043 3042 3044 3047 3049 3052 3055 3056 3056 3059 3065 3072 3078 3084 3089 3094 3098 3101 3104 3107 3108
3124 3126 3125 3125 3128 3128 3112 3108 3105 3103 3100 3097 3094 3092 3091 3089 3086 3082 3076 3071 3066 3061 3055 3051 3050 3047 3045 3044 3043 3045 3045 3046 3048 3052 3054 3055 3057 3060 3063 3070 3077 3081 3086 3090 3095 3099 3101 3103 3104
3122 3122 3123 3124 3124 3124 3125 3108 3105 3103 3100 3097 3095 3093 3091 3090 3087 3083 3078 3072 3067 3062 3057 3052 3052 3050 3048 3045 3044 3043 3044 3045 3047 3049 3052 3056 3060 3062 3065 3070 3076 3078 3083 3086 3089 3094 3096 3099 3100
3119 3119 3121 3122 3122 3121 3120 3107 3103 3103 3101 3098 3096 3094 3091 3089 3087 3084 3080 3074 3069 3064 3060 3056 3051 3051 3052 3050 3048 3045 3044 3045 3045 3047 3051 3054 3059 3063 3066 3070 3075 3078 3081 3084 3086 3089 3093 3094 3096